Regional Weather Roundup
Issued by NWS

Home | Current Version | Previous Version | Text Only | Print | Product List | Glossary On
Versions: 1 2 3 4 5 6 7 8 9 10 11 12 13 14 15 16 17 18 19 20 21 22 23 24 25 26 27 28 29 30 31 32 33 34 35 36 37 38 39 40 41 42 43 44 45 46 47 48 49 50
000
ASUS45 KREV 260710
RWRNV
NEVADA REGIONAL WEATHER ROUNDUP
NATIONAL WEATHER SERVICE RENO NV
1200 AM PDT SUN MAR 26 2017

NOTE: "FAIR" INDICATES FEW OR NO CLOUDS BELOW 12,000 FEET WITH NO
SIGNIFICANT WEATHER AND/OR OBSTRUCTIONS TO VISIBILITY.

NVZ001-003-004-260800-
WESTERN NEVADA

CITY           SKY/WX    TMP DP  RH WIND       PRES   REMARKS
RENO           PTCLDY    42  31  64 CALM      30.04F
CARSON CITY    FAIR      37  30  75 CALM      30.05F
MINDEN         FAIR      32  28  86 SE8       30.05F
FALLON         CLEAR     37  25  61 S6        30.03R
LOVELOCK       PTCLDY    37  26  64 CALM      30.02S
HAWTHORNE      CLEAR     45  27  49 NW7       30.04R
$$

NVZ002-CAZ072-073-260800-
NORTHERN AND CENTRAL SIERRA

CITY           SKY/WX    TMP DP  RH WIND       PRES   REMARKS
S. LAKE TAHOE  CLEAR     30  27  88 S3        30.06F
TRUCKEE        CLEAR     28  28 100 CALM      30.08S
SQUAW VLY 8000   N/A     27  27 100 SW13        N/A
SUSANVILLE     CLEAR     37  32  81 W5        30.06S
MAMMOTH LAKES  FAIR      31  23  70 CALM      30.08S
BRIDGEPORT       N/A     30  20  66 CALM      30.04F
$$

NVZ030-031-036-260800-
NORTHERN NEVADA

CITY           SKY/WX    TMP DP  RH WIND       PRES   REMARKS
ELKO           CLEAR     35  28  75 CALM      30.03F
WINNEMUCCA     PTCLDY    37  27  67 S7        30.02R
WENDOVER       CLEAR     40  30  67 SW5       30.04R
$$

NVZ035-037-260800-
CENTRAL NEVADA

CITY           SKY/WX    TMP DP  RH WIND       PRES   REMARKS
ELY            CLEAR     28  26  92 S8        30.07R
EUREKA           N/A     30  26  85 SE3       30.04F
$$

NVZ013-014-260800-
SOUTH CENTRAL NEVADA

CITY           SKY/WX    TMP DP  RH WIND       PRES   REMARKS
TONOPAH        CLEAR     40  32  73 N10       30.04F
$$

NVZ017-020-022-260800-
SOUTHERN NEVADA

CITY           SKY/WX    TMP DP  RH WIND       PRES   REMARKS
LAS VEGAS      PTCLDY    60  35  39 N7        29.97R
N. LAS VEGAS   CLEAR     59  36  42 S5        29.97R
NELLIS AFB     CLEAR     59  38  46 NE10      29.97R
HENDERSON      CLEAR     54  36  50 S6        30.00R
MERCURY        CLEAR     48  40  73 NE5       29.99R
$$



USA.gov is the U.S. government's official web portal to all federal, state and local government web resources and services.